Location: Baumgarten
(49.0970°N, 12.7493°E)
Time: 18:41:34
(UTC+00:00)

Cosmos 2333 Rocket - Pass Details

Date: 05 July 2020
Orbit: 837 x 864 km, 70.8° (Epoch: 12 August)

Event Time Altitude Azimuth Distance (km) Brightness Sun altitude
Rises 22:25:05 0° 243° (WSW) 3,402 5.2 -17.4°
Reaches altitude 10° 22:27:50 10° 254° (WSW) 2,474 4.6 -17.5°
Maximum altitude 22:32:45 29° 314° (NW) 1,510 4.1 -17.7°
Drops below altitude 10° 22:37:44 10° 15° (NNE) 2,502 5.7 -17.8°
Sets 22:40:33 0° 26° (NNE) 3,446 6.3 -17.9°
